McConnell AFB, KS

2:34 PM CDT on March 24, 2017 (GMT -0500)
McConnell Air Force Base

Weather History for KIAB - June, 2013

Change the Weather History Date:

Wednesday, June 19, 2013

  Actual Average Record
Temperature  
Mean Temperature 76 °F -  
Max Temperature 84 °F 83 °F 97 °F (2011)
Min Temperature 67 °F 64 °F 60 °F (1999)
Cooling Degree Days 10    
Growing Degree Days 26 (Base 50)    
Moisture  
Dew Point 68 °F    
Average Humidity 84    
Maximum Humidity 100    
Minimum Humidity 57    
Precipitation  
Precipitation 0.13 in - - ()
Sea Level Pressure  
Sea Level Pressure 29.98 in    
Wind  
Wind Speed 9 mph (South)    
Max Wind Speed 20 mph    
Max Gust Speed 23 mph    
Visibility 10 miles    
Events Rain , Thunderstorm    
Averages and records for this station are not official NWS values.
T = Trace of Precipitation, MM = Missing Value Source: NWS Daily Summary

Daily Weather History Graph

Daily Weather History Graph

Search for Another Location

Airport or City:

Trip Planner

Search our weather history database for the weather conditions in past years. The results will help you decide how hot, cold, wet, or windy it might be!

Date:

Astronomy

Jun. 19, 2013 Rise Set
Actual Time 6:07 AM CDT 8:53 PM CDT
Civil Twilight 5:36 AM CDT 9:24 PM CDT
Nautical Twilight 4:57 AM CDT 10:03 PM CDT
Astronomical Twilight 4:12 AM CDT 10:48 PM CDT
Moon 4:50 PM CDT (6/19) 2:49 AM CDT (6/19)
Length of Visible Light 15h 48m
Length of Day
14h 45m
Waxing Gibbous, 80% of the Moon is Illuminated
Jun 19
Waxing Gibbous
Jun 23
Full
Jun 29
Last Quarter
Jul 8
New
Jul 15
First Quarter

Hourly Weather History & Observations

Time (CDT) Temp. Heat Index Dew Point Humidity Pressure Visibility Wind Dir Wind Speed Gust Speed Precip Events Conditions
12:15 AM 73.4 °F - 68.0 °F 83% 30.04 in 10.0 mi WNW 8.1 mph - N/A Thunderstorm Light Drizzle
12:58 AM 69.6 °F - 65.5 °F 87% 30.04 in 10.0 mi WNW 8.1 mph - 0.00 in Rain Light Rain
1:12 AM 69.8 °F - 66.2 °F 88% 30.03 in 10.0 mi West 8.1 mph - N/A Thunderstorm Partly Cloudy
1:17 AM 69.8 °F - 66.2 °F 88% 30.04 in 10.0 mi West 8.1 mph - N/A   Light Drizzle
1:26 AM 69.8 °F - 68.0 °F 94% 30.04 in 10.0 mi West 5.8 mph - N/A Rain , Thunderstorm Light Thunderstorms and Rain
1:30 AM 69.8 °F - 68.0 °F 94% 30.04 in 10.0 mi West 5.8 mph - N/A Rain , Thunderstorm Light Thunderstorms and Rain
1:45 AM 69.8 °F - 68.0 °F 94% 30.04 in 10.0 mi West 3.5 mph - N/A Rain , Thunderstorm Light Thunderstorms and Rain
1:52 AM 69.8 °F - 68.0 °F 94% 30.04 in 10.0 mi West 5.8 mph - N/A Rain Light Rain
1:57 AM 69.8 °F - 68.0 °F 94% 30.04 in 10.0 mi West 5.8 mph - N/A Rain Light Rain
1:58 AM 69.3 °F - 68.5 °F 98% 30.01 in 10.0 mi West 6.9 mph - 0.01 in Rain Light Rain
2:03 AM 69.8 °F - 69.8 °F 100% 30.04 in 9.0 mi West 6.9 mph - N/A Rain Rain
2:08 AM 69.8 °F - 69.8 °F 100% 30.04 in 6.0 mi West 6.9 mph - N/A Rain Rain
2:28 AM 69.8 °F - 69.8 °F 100% 30.02 in 8.0 mi WSW 3.5 mph - N/A Rain Light Rain
2:33 AM 69.8 °F - 69.8 °F 100% 30.00 in 9.0 mi SSE 5.8 mph - N/A Rain Light Rain
2:53 AM 71.6 °F - 69.8 °F 94% 29.95 in 10.0 mi SSE 11.5 mph - N/A Rain Light Rain
2:58 AM 71.6 °F - 69.8 °F 94% 29.93 in 10.0 mi SSE 10.4 mph - 0.12 in Rain Light Rain
3:00 AM 71.6 °F - 69.8 °F 94% 29.96 in 10.0 mi SSE 11.5 mph - N/A   Scattered Clouds
3:16 AM 69.8 °F - 69.8 °F 100% 29.97 in 10.0 mi SSE 5.8 mph - N/A   Partly Cloudy
3:58 AM 70.0 °F - 69.3 °F 98% 29.95 in 10.0 mi SSW 8.1 mph - 0.00 in   Clear
4:58 AM 67.8 °F - 67.8 °F 100% 29.96 in 10.0 mi WSW 4.6 mph - N/A   Clear
5:58 AM 68.2 °F - 68.2 °F 100% 29.97 in 10.0 mi South 4.6 mph - N/A   Clear
6:58 AM 68.7 °F - 68.7 °F 100% 29.97 in 10.0 mi SE 5.8 mph - N/A   Clear
7:58 AM 71.1 °F - 70.0 °F 96% 29.98 in 10.0 mi SSE 8.1 mph - N/A   Clear
8:58 AM 74.3 °F - 71.4 °F 91% 29.99 in 10.0 mi SSE 11.5 mph - N/A   Clear
9:58 AM 77.7 °F - 72.0 °F 82% 29.97 in 10.0 mi SSE 16.1 mph - N/A   Scattered Clouds
10:58 AM 79.3 °F - 70.7 °F 75% 29.98 in 10.0 mi SSE 16.1 mph 23.0 mph N/A   Partly Cloudy
11:58 AM 80.4 °F 83.2 °F 68.4 °F 67% 29.97 in 10.0 mi SE 15.0 mph - N/A   Scattered Clouds
12:58 PM 81.5 °F 84.4 °F 68.2 °F 64% 29.98 in 10.0 mi SSE 15.0 mph - N/A   Partly Cloudy
1:18 PM 82.4 °F 84.6 °F 66.2 °F 58% 30.00 in 10.0 mi South 16.1 mph - N/A   Scattered Clouds
1:58 PM 82.2 °F 84.7 °F 67.1 °F 60% 29.96 in 10.0 mi SSE 15.0 mph - N/A   Mostly Cloudy
2:58 PM 82.8 °F 85.1 °F 66.6 °F 58% 29.94 in 10.0 mi SE 18.4 mph - N/A   Scattered Clouds
3:58 PM 84.2 °F 87.1 °F 67.5 °F 57% 29.93 in 10.0 mi SSE 18.4 mph - N/A   Scattered Clouds
4:58 PM 84.4 °F 87.3 °F 67.6 °F 57% 29.91 in 10.0 mi SE 15.0 mph - N/A   Clear
5:58 PM 82.6 °F 85.5 °F 67.8 °F 61% 29.91 in 10.0 mi SE 19.6 mph - N/A   Scattered Clouds
6:58 PM 82.6 °F 85.3 °F 67.3 °F 60% 29.91 in 10.0 mi SE 17.3 mph - N/A   Clear
7:58 PM 80.2 °F 82.5 °F 66.4 °F 63% 29.91 in 10.0 mi SE 16.1 mph - N/A   Scattered Clouds
8:58 PM 77.5 °F - 67.3 °F 71% 29.91 in 10.0 mi SE 13.8 mph - N/A   Clear
9:58 PM 75.9 °F - 68.0 °F 76% 29.94 in 10.0 mi SE 11.5 mph - N/A   Partly Cloudy
10:58 PM 74.5 °F - 69.8 °F 85% 29.94 in 10.0 mi SE 10.4 mph - N/A   Clear
11:58 PM 73.4 °F - 70.7 °F 91% 29.94 in 10.0 mi SSE 11.5 mph - N/A   Partly Cloudy